Location: Newark
(34.1333°N, 7.9667°W)
Time: 13:30:15
(UTC+00:00)

S-56A Canister/Altair - Pass Details

Date: 11 December 2021
Orbit: 634 x 2499 km, 38.9° (Epoch: 25 January)

Event Time Altitude Azimuth Distance (km) Brightness Sun altitude
Rises 20:36:28 0° 228° (SW) 6,168 12.7 -39.2°
Reaches altitude 10° 20:40:39 10° 225° (SW) 5,128 12.1 -40.1°
Enters shadow 20:53:16 59° 180° (S) 2,462 9.8 -42.7°
